Location: Unspecified
(58.7730°N, 5.8460°E)
Time: 02:28:20
(UTC+02:00)

CZ-3 Stage 3 - Visible Passes

Search period start: 03 August 2015 00:00
Search period end: 13 August 2015 00:00
Orbit: 435 x 34790 km, 31.0° (Epoch: 31 July)

Date Brightness Start Highest point End Pass type
(mag) Time Alt. Az. Time Alt. Az. Time Alt. Az.
03 Aug 6.8 04:23:08 10° SSW 05:03:39 46° SE 13:08:57 10° S visible
04 Aug 7.0 01:00:22 10° SE 01:17:56 17° E 08:56:45 10° ESE visible
06 Aug 6.8 04:17:30 10° SSW 04:57:30 46° SSE 13:01:39 10° S visible
07 Aug 7.0 00:53:41 10° SE 01:11:21 18° E 08:50:11 10° ESE visible
09 Aug 6.7 04:11:51 10° SSW 04:51:24 47° SSE 12:54:13 10° S visible
10 Aug 7.0 00:47:07 10° SE 01:04:49 18° ESE 08:43:31 10° SE visible
12 Aug 6.7 04:06:39 11° SSW 04:45:21 47° SSE 12:46:37 10° S visible
